星链-5486 (STARLINK-5486 )

导读

STARLINK-5486是美国太空探索技术公司(SpaceX)星链互联网星座中的一颗卫星,于2023年5月10日发射入轨,属于星链项目第二批组网卫星,主要用于为全球提供高速低延迟宽带互联网服务,尤其覆盖偏远地区,也推动了全球卫星通信网络建设与发展。

基本信息
目录编号:
56473
目录名称:
STARLINK-5486
国际标识:
2023-064AB
轨道中心:
EARTH
卫星名称:
星链-5486
卫星全名:
星链-5486 (STARLINK-5486 )
卫星状态:
已陨落 最后检测时间 2025-04-08
发射日期:
2023-05-10 UTC
国别 :
美国 (US)
星等 :
--
轨道信息
数据来源 国际轨道数据
星历时间: 2025-04-08T13:49:47+0800
轨道信息已过期432天
半长轴: 6527.355km
偏心率: 0.0009321
轨道倾角: 69.986°
近地点辐角 285.609°
升交点赤经 234.598°
平近点角 145.536°
近地点: 143.135km
远地点: 155.305km
周期: 87.471分钟
每日圈数: 16.462546
详细信息
固有亮度:
5
最大亮度:
2.5
卫星平台:
Starlink v1.5
覆盖范围:
全球
运营商:
太空探索技术公司
运营商所在国:
美国
制造商(研发单位):
太空探索技术公司
制造商所在国:
美国
使用方式:
暂无
卫星简介
星链(Starlink)计划是由太空探索技术公司(SpaceX)提出的一个巨型低轨卫星互联网星座项目,计划在2019年至2024年间在太空搭建由约1.2万颗卫星组成的“星链”网络,其中1584颗将部署在地球上空550千米处的近地轨道,并从2020年开始工作。该卫星仍在工作。